User: anonymous   Login
Location: Unspecified
(0.0000°N, 0.0000°E)
Time: 18:32:39
(UTC+00:00)
Language:

COSMOS 2401 - Orbit

View from above orbital plane
View from above orbital plane
View from above satellite
View from above satellite

Ground track
Ground track

The orbit data is extracted from the following two-line orbital elements,

1 27869U 03037B   21101.86032695  .00000029  00000-0  13587-3 0  9997
2 27869  82.4679  73.5203 0021211 232.7169 127.1984 12.45459102802349
Epoch (UTC): 11 April 2021 20:38:52
Eccentricity: 0.0021211
inclination: 82.4679°
perigee height: 1467 km
apogee height: 1500 km
right ascension of ascending node: 73.5203°
argument of perigee: 232.7169°
revolutions per day: 12.45459102
mean anomaly at epoch: 127.1984°
orbit number at epoch: 80234

The dashed part of the orbit path shows where the satellite is in the earth's shadow,  

DLR